Regional Weather Roundup
Issued by NWS

Home | Current Version | Previous Version | Graphics & Text | Print | Product List | Glossary On
Versions: 1 2 3 4 5 6 7 8 9 10 11 12 13 14 15 16 17 18 19 20 21 22 23 24 25 26 27
000
ASUS45 KBOU 260807
RWRCO

WEATHER ROUNDUP FOR COLORADO
NATIONAL WEATHER SERVICE DENVER/BOULDER CO
200 AM MDT FRI MAY 26 2017

NOTE: "FAIR" INDICATES FEW OR NO CLOUDS BELOW 12000 FEET WITH NO
SIGNIFICANT WEATHER AND/OR OBSTRUCTIONS TO VISIBILITY.

COZ001>005-013-030-031-260900-
...NORTHWEST COLORADO...

CITY           SKY/WX    TMP DP  RH WIND       PRES   REMARKS
CRAIG          FAIR      43  38  82 E8        29.93S
HAYDEN         FAIR      41  36  81 E9        29.95R
MEEKER         MOCLDY    41  38  89 NE7       29.92F
RABBIT EARS PA FOG       32  30  93 SW9       30.09S VSB 1/4 WCI  24
STEAMBOAT SPGS FAIR      38  37  94 CALM      29.97S
WALDEN           N/A     34  32  93 SE6       30.02S WCI  29
$$

COZ006>008-011-260900-
...WEST CENTRAL VALLEYS...

CITY           SKY/WX    TMP DP  RH WIND       PRES   REMARKS
GRAND JUNCTION CLOUDY    61  41  47 SE15      29.85S
MONTROSE       CLOUDY    56  40  55 E9        29.97R
EAGLE          MOCLDY    47  42  83 CALM      30.01R
RIFLE          FAIR      54  43  66 S18G24    29.92S
DELTA          FAIR      56  46  68 NE9       29.92S
NUCLA          CLOUDY    55  36  47 E12       29.93F
$$

COZ017>023-064>068-260900-
...SOUTHWEST COLORADO...

CITY           SKY/WX    TMP DP  RH WIND       PRES   REMARKS
DURANGO          N/A    N/A N/A N/A MISG      29.96R
CORTEZ         FAIR      53  35  50 NE6       29.91F
PAGOSA SPRINGS NOT AVBL
TELLURIDE      MOCLDY    43  38  82 E5        30.10F
WOLF CREEK PAS FAIR      34  25  69 SW15G23   30.25S WCI  24
$$

COZ009-010-012-014-032>034-037-058>063-260900-
...CENTRAL COLORADO...

CITY           SKY/WX    TMP DP  RH WIND       PRES   REMARKS
ASPEN          LGT RAIN  45  42  89 NE5       30.03R
BUENA VISTA    MOCLDY    45  37  72 N7        30.02F
COPPER MTN     CLOUDY    36  30  80 SW14G23   30.17R
BERTHOUD PASS  FAIR      27  18  69 MISG      30.15R
COTTONWOOD PAS FAIR      43  32  65 W14G22    30.09F
GUNNISON       LGT RAIN  45  41  86 CALM      30.06S
KREMMLING      FAIR      43  39  87 CALM      30.03R
LEADVILLE      CLOUDY    37  34  89 S6        30.10R
MONARCH PASS   FAIR      32  30  93 W23       30.28S WCI  19
SALIDA         FAIR      49  38  64 CALM      30.09S
SUNLIGHT       SNOW      32  32 100 SW17G26   30.15R VSB 1/2 WCI  21
WILKERSON PASS CLOUDY    32  32 100 SW21G30   30.15F WCI  20
$$

COZ069>075-260900-
...SAN LUIS VALLEY/SANGRE DE CRISTO MOUNTAINS...

CITY           SKY/WX    TMP DP  RH WIND       PRES   REMARKS
ALAMOSA        MOCLDY    51  34  52 N14       30.01R
DEL NORTE      FAIR      46  31  56 CALM      30.03R
LA VETA PASS   CLOUDY    43  28  56 MISG      30.25R
SAGUACHE       FAIR      45  37  76 NW8       30.05R
$$

COZ035-036-038>040-260900-
...NORTHERN COLORADO FRONT RANGE...

CITY           SKY/WX    TMP DP  RH WIND       PRES   REMARKS
DENVER INTL AP MOCLDY    47  44  90 E5        29.93F
DMNS CITY PARK   N/A     47  46  99 SE7       29.94S
AURORA         MOCLDY    45  45  99 NE5       29.95F
FRONT RANGE AP LGT RAIN  50  45  81 N9G23     29.94F
ERIE MUNI ARPT FAIR      48  46  92 CALM      29.93F
BOULDER MUN AP FAIR      48  45  87 CALM      29.94S
CENTENNIAL     MOCLDY    45  44  97 S6        29.96F
BROOMFIELD     FAIR      46  45  93 CALM      29.95F
FORT COLLINS   FAIR      48  46  93 SW8       29.94R
LONGMONT       FAIR      49  46  90 W3        29.96R
$$

COZ041-046-047-076>085-087-088-260900-
...PIKES PEAK/PALMER DIVIDE AND SOUTHERN FOOTHILLS...

CITY           SKY/WX    TMP DP  RH WIND       PRES   REMARKS
COLO. SPRINGS  TSTM      48  43  82 N9        30.01R FOG
A. F. ACADEMY  CLOUDY    48  45  87 E7        29.98F
SCHRIEVER AFB  RAIN      49  42  76 NW31G38   30.02
CHEYENNE MTN   TSTM      48  43  82 N13       29.94
ELLICOTT       CLOUDY   N/A N/A N/A NW8       29.97R THUNDER
FALCON         TSTM      45  43  91 W5        30.04R
FORT CARSON    TSTM      52  45  76 N10       29.96R
LIMON          LGT RAIN  49  46  90 NW18      29.94R
MONUMENT HILL  RAIN      39  37  93 N13G28    30.03R
CANON CITY     NOT AVBL
WALSENBURG     FAIR      50  46  87 SE5       29.96F
TRINIDAD       FAIR      50  42  74 NW9       29.95R
$$

COZ042>045-048>051-090-091-260900-
...NORTHEAST COLORADO...

CITY           SKY/WX    TMP DP  RH WIND       PRES   REMARKS
GREELEY ARPT   FAIR      49  46  90 NW9       29.93R
AKRON          CLOUDY    50  47  89 W14       29.89S
BURLINGTON     FAIR      56  50  80 N9        29.81R
WRAY           LGT RAIN  54  48  82 N9        29.82F
YUMA           FAIR      50  46  87 NW8       29.86F
STERLING       FAIR      52  50  93 NW5       29.87R
HOLYOKE        NOT AVBL
FORT MORGAN    CLOUDY    50  47  89 W8        29.91S
$$

COZ086-089-092>099-260900-
...SOUTHEAST COLORADO...

CITY           SKY/WX    TMP DP  RH WIND       PRES   REMARKS
PUEBLO         MOCLDY    54  47  77 W5        29.91R
LA JUNTA       FAIR      54  47  77 W12       29.86R
LAMAR          FAIR      55  47  74 CALM      29.78F
SPRINGFIELD      N/A     50  47  89 NW10      29.84R
$$




USA.gov is the U.S. government's official web portal to all federal, state and local government web resources and services.